Hourly Data Report for October 04, 2015

All times are specified in Local Standard Time (LST). Add 1 hour to adjust for Daylight Saving Time where and when it is observed.

IQALUIT CLIMATE
NUNAVUT

63°44'50.000" N
68°32'40.000" W
33.50 m
2402592
71321
XFB

Download Data

Hourly Data (October 2015)
Hourly Data Report for October 4, 2015
Temp Definition
°C
Dew Point Temp Definition
°C
Rel Hum Definition
%
Wind Dir Definition
10's deg

Wind Spd Definition
km/h
Visibility Definition
km
Stn Press Definition
kPa
Hmdx Definition


Wind Chill Definition


Weather Definition


TIME
00:00 7.3 2.4 71 22 6   100.98     LegendNANA
01:00 6.2 2.2 76 28 11   100.89     LegendNANA
02:00 6.3 2.0 74 28 40   100.71     LegendNANA
03:00 5.0 2.0 81 28 32   100.73     LegendNANA
04:00 4.0 1.8 86 30 29   100.76     LegendNANA
05:00 1.0 -0.8 88 32 35   100.86     LegendNANA
06:00 0.4 -1.6 87 32 35   100.95     LegendNANA
07:00 0.5 -1.5 86 33 31   101.07     LegendNANA
08:00 0.5 -1.7 85 33 37   101.17     LegendNANA
09:00 0.6 -2.1 82 33 39   101.28     LegendNANA
10:00 -0.5 -3.0 83 32 32   101.39   -7 LegendNANA
11:00 0.1 -2.4 83 34 29   101.46     LegendNANA
12:00 0.9 -3.2 74 33 35   101.52     LegendNANA
13:00 1.1 -3.3 73 34 35   101.57     LegendNANA
14:00 0.9 -3.2 74 34 28   101.61     LegendNANA
15:00 0.6 -3.5 74 34 24   101.68     LegendNANA
16:00 0.4 -3.8 73 33 24   101.73     LegendNANA
17:00 0.1 -4.2 72 33 26   101.77     LegendNANA
18:00 -0.3 -4.2 75 34 28   101.78   -7 LegendNANA
19:00 -0.7 -4.5 75 35 21   101.80   -6 LegendNANA
20:00 -0.9 -4.4 77 33 22   101.77   -7 LegendNANA
21:00 -1.9 -5.2 78 33 22   101.75   -8 LegendNANA
22:00 -2.6 -5.8 79 32 18   101.71   -8 LegendNANA
23:00 -2.8 -5.7 80 33 23   101.66   -9 LegendNANA

Notes on Data Quality.

Legend

  • E = Estimated
  • M = Missing
  • NA = Not Available
  • ‡ = Partner data that is not subject to review by the National Climate Archives
Date modified: